map of MEC home
Great Circle Mapper logo
MEC - Airport
Location
City:  Manta, Manabí, Ecuador
Name:Eloy Alfaro International Airport
ICAO / IATA:SEMT / MEC

Details
Type:Airport (Aerodrome, Airfield)
Use:Public/Civil, Military, International (customs port of entry)
Latitude:0°56'46"S (-0.946077)
Longitude:80°40'44"W (-80.678807)
Datum:WGS 1984
Elevation:48 ft (15 m)
Runways:1
Longest:9383 × 148 ft (2860 × 45 m), paved

Time
Time Zone:UTC-5
Local Time:

Weather
METAR:SEMT 290100Z 19012KT 9999 FEW020 SCT100 22/20 Q1011
TAF:SEMT 282250Z 2900/2924 20008KT 9999 BKN023 291400 20012KT 9999 FEW030 TX28/2920Z TN21/2910Z

Related Locations
Nearby:
Farthest:AEG: 12443 mi / 20025 km
Padang Sidempuan [Aek Godang], Sumatra, ID

Find:

   beyond  
but within

Other Information
Maps:
NOTAMs:
Links:
Sources:

  
flag of Ecuador   

Airport Diagram

Airport diagram for MEC

Airport diagram (OBSOLETE) from NGA

Sectional Chart

Flight Planning
at skyvector.com

Satellite Image

Google Maps Satellite View

 

Copyright © 2004-2014 Karl L. Swartz. All rights reserved.
The Great Circle Mapper name and logo are trademarks of the Great Circle Mapper.
All other trademarks mentioned herein belong to their respective owners.
Please see credits for attibutions and further copyright information.

  Follow gcmap on Facebook Follow gcmap on Twitter

hCard Microformat

Geo Microformat